| time (UTC) | temp C | wind direction | speed KPH | gust KPH | rain 1hr cm | rain 24hr cm | rain mn cm | humidity % | barometer mb |
| 20260507121642 | 17 | 314 | 4.8 | 11.3 | 0.00 | 0.00 | 0.00 | 998.8 | |
| 20260507113443 | 17 | 348 | 4.8 | 9.7 | 0.00 | 0.00 | 0.00 | 998.7 | |
| 20260507105243 | 20 | 165 | 3.2 | 6.4 | 0.00 | 0.00 | 0.00 | 998.8 | |
| 20260507101042 | 29 | 163 | 1.6 | 3.2 | 0.00 | 0.00 | 0.00 | 998.8 | |
| 20260507092843 | 27 | 167 | 1.6 | 4.8 | 0.00 | 0.00 | 0.00 | 998.7 | |
| 20260507084642 | 22 | 158 | 1.6 | 1.6 | 0.00 | 0.00 | 0.00 | 998.7 | |
| 20260507080442 | 21 | 172 | 1.6 | 3.2 | 0.00 | 0.00 | 0.00 | 998.7 | |
| 20260507072242 | 17 | 185 | 3.2 | 3.2 | 0.00 | 0.00 | 0.00 | 998.7 | |
| 20260507064042 | 13 | 188 | 3.2 | 4.8 | 0.00 | 0.00 | 0.00 | 3 | 998.7 |
| 20260507055843 | 12 | 189 | 4.8 | 4.8 | 0.00 | 0.00 | 0.00 | 12 | 998.7 |
| 20260507051642 | 10 | 191 | 4.8 | 4.8 | 0.00 | 0.00 | 0.00 | 21 | 998.7 |
| 20260507043442 | 7 | 188 | 3.2 | 4.8 | 0.00 | 0.00 | 0.00 | 30 | 998.7 |
| 20260507035242 | 4 | 171 | 3.2 | 4.8 | 0.00 | 0.00 | 0.00 | 30 | 998.7 |
| 20260507031042 | 4 | 169 | 3.2 | 4.8 | 0.00 | 0.00 | 0.00 | 33 | 998.6 |
| 20260507022842 | 3 | 169 | 3.2 | 4.8 | 0.00 | 0.00 | 0.00 | 32 | 998.2 |
| 20260507014642 | 3 | 170 | 4.8 | 4.8 | 0.00 | 0.00 | 0.00 | 28 | 998.2 |
| 20260507010443 | 4 | 170 | 4.8 | 4.8 | 0.00 | 0.00 | 0.00 | 26 | 997.7 |
| 20260507002243 | 5 | 170 | 4.8 | 4.8 | 0.00 | 0.00 | 0.00 | 27 | 997.7 |
| 20260506234042 | 5 | 170 | 3.2 | 4.8 | 0.00 | 0.00 | 0.00 | 28 | 997.7 |
| 20260506225842 | 5 | 171 | 3.2 | 4.8 | 0.00 | 0.00 | 0.00 | 25 | 997.7 |
| 20260506221642 | 6 | 173 | 3.2 | 4.8 | 0.00 | 0.00 | 0.00 | 23 | 997.7 |
| 20260506213442 | 6 | 174 | 6.4 | 6.4 | 0.00 | 0.00 | 0.00 | 21 | 997.7 |
| 20260506205242 | 7 | 173 | 4.8 | 6.4 | 0.00 | 0.00 | 0.00 | 19 | 997.7 |
| 20260506201042 | 7 | 172 | 3.2 | 3.2 | 0.00 | 0.00 | 0.00 | 17 | 997.7 |
| 20260506192843 | 7 | 178 | 3.2 | 4.8 | 0.00 | 0.00 | 0.00 | 13 | 997.7 |
| 20260506184642 | 8 | 183 | 3.2 | 4.8 | 0.00 | 0.00 | 0.00 | 5 | 997.7 |
| 20260506180442 | 9 | 189 | 3.2 | 4.8 | 0.00 | 0.00 | 0.00 | 3 | 996.9 |
| 20260506172243 | 11 | 195 | 4.8 | 4.8 | 0.00 | 0.00 | 0.00 | 996.7 | |
| 20260506164042 | 15 | 198 | 4.8 | 4.8 | 0.00 | 0.00 | 0.00 | 996.7 | |
| 20260506155842 | 15 | 203 | 4.8 | 4.8 | 0.00 | 0.00 | 0.00 | 996.7 | |
| 20260506151642 | 16 | 206 | 3.2 | 4.8 | 0.00 | 0.00 | 0.00 | 996.7 | |
| 20260506143443 | 16 | 203 | 4.8 | 8.0 | 0.00 | 0.00 | 0.00 | 996.7 | |
| 20260506135242 | 20 | 204 | 3.2 | 4.8 | 0.00 | 0.00 | 0.00 | 996.7 | |
| 20260506131042 | 27 | 184 | 1.6 | 4.8 | 0.00 | 0.00 | 0.00 | 996.7 |